| time (UTC) | temp C | wind direction | speed KPH | gust KPH | rain 1hr cm | rain 24hr cm | rain mn cm | humidity % | barometer mb |
| 20260504100255 | 11 | 90 | 8.0 | 0.0 | 0.00 | 0.00 | 0.00 | 75 | 1015.8 |
| 20260504081529 | 12 | 90 | 8.0 | 0.0 | 0.00 | 0.00 | 0.00 | 67 | 1015.8 |
| 20260504081400 | 12 | 112 | 6.4 | 0.0 | 0.00 | 0.00 | 0.00 | 67 | 1015.8 |
| 20260504080800 | 12 | 45 | 6.4 | 0.0 | 0.00 | 0.00 | 0.00 | 66 | 1015.8 |
| 20260504080702 | 12 | 90 | 8.0 | 0.0 | 0.00 | 0.00 | 0.00 | 66 | 1015.8 |
| 20260504070407 | 12 | 112 | 4.8 | 0.0 | 0.00 | 0.00 | 0.00 | 69 | 1016.2 |
| 20260504050305 | 13 | 112 | 6.4 | 0.0 | 0.00 | 0.00 | 0.00 | 64 | 1017.0 |
| 20260504050150 | 13 | 68 | 6.4 | 0.0 | 0.00 | 0.00 | 0.00 | 64 | 1017.0 |
| 20260504045550 | 13 | 202 | 8.0 | 0.0 | 0.00 | 0.00 | 0.00 | 64 | 1017.0 |
| 20260504045454 | 13 | 135 | 8.0 | 0.0 | 0.00 | 0.00 | 0.00 | 64 | 1017.0 |
| 20260504044758 | 13 | 90 | 6.4 | 0.0 | 0.00 | 0.00 | 0.00 | 64 | 1016.9 |
| 20260504044055 | 13 | 45 | 6.4 | 0.0 | 0.00 | 0.00 | 0.00 | 62 | 1016.9 |
| 20260504043455 | 13 | 112 | 6.4 | 0.0 | 0.00 | 0.00 | 0.00 | 61 | 1016.9 |
| 20260504043328 | 13 | 158 | 6.4 | 0.0 | 0.00 | 0.00 | 0.00 | 61 | 1017.0 |
| 20260504042728 | 13 | 68 | 6.4 | 0.0 | 0.00 | 0.00 | 0.00 | 60 | 1017.0 |
| 20260504042025 | 13 | 135 | 6.4 | 0.0 | 0.00 | 0.00 | 0.00 | 60 | 1016.9 |
| 20260504041924 | -17 | 22 | 4.8 | 0.0 | 0.00 | 0.00 | 0.00 | 60 | 1016.8 |
| 20260504041324 | 13 | 112 | 6.4 | 0.0 | 0.00 | 0.00 | 0.00 | 60 | 1016.8 |
| 20260504041203 | 14 | 45 | 4.8 | 0.0 | 0.00 | 0.00 | 0.00 | 60 | 1016.7 |
| 20260504040458 | 14 | 158 | 6.4 | 0.0 | 0.00 | 0.00 | 0.00 | 60 | 1016.7 |
| 20260504035858 | 14 | 112 | 6.4 | 0.0 | 0.00 | 0.00 | 0.00 | 60 | 1016.7 |
| 20260504035753 | 14 | 22 | 4.8 | 0.0 | 0.00 | 0.00 | 0.00 | 60 | 1016.8 |
| 20260504035153 | 14 | 112 | 4.8 | 0.0 | 0.00 | 0.00 | 0.00 | 59 | 1016.8 |
| 20260504035037 | 14 | 135 | 3.2 | 0.0 | 0.00 | 0.00 | 0.00 | 59 | 1016.8 |
| 20260504034437 | 14 | 202 | 8.0 | 0.0 | 0.00 | 0.00 | 0.00 | 58 | 1016.8 |
| 20260504034330 | 14 | 112 | 6.4 | 0.0 | 0.00 | 0.00 | 0.00 | 58 | 1016.8 |
| 20260504033731 | 14 | 90 | 9.7 | 0.0 | 0.00 | 0.00 | 0.00 | 56 | 1016.8 |
| 20260504033359 | 15 | 45 | 4.8 | 0.0 | 0.00 | 0.00 | 0.00 | 55 | 1016.9 |
| 20260504032759 | 15 | 135 | 6.4 | 0.0 | 0.00 | 0.00 | 0.00 | 54 | 1016.9 |
| 20260504032728 | 15 | 112 | 8.0 | 0.0 | 0.00 | 0.00 | 0.00 | 54 | 1017.0 |
| 20260504032128 | 15 | 90 | 8.0 | 0.0 | 0.00 | 0.00 | 0.00 | 54 | 1017.0 |
| 20260504032030 | 15 | 135 | 6.4 | 0.0 | 0.00 | 0.00 | 0.00 | 54 | 1017.1 |
| 20260504031429 | 15 | 112 | 4.8 | 0.0 | 0.00 | 0.00 | 0.00 | 54 | 1017.1 |
| 20260504031327 | 15 | 180 | 6.4 | 0.0 | 0.00 | 0.00 | 0.00 | 54 | 1017.3 |
| 20260504030727 | 15 | 112 | 4.8 | 0.0 | 0.00 | 0.00 | 0.00 | 55 | 1017.3 |
| 20260504030646 | 14 | 112 | 6.4 | 0.0 | 0.00 | 0.00 | 0.00 | 55 | 1017.4 |
| 20260504030046 | 14 | 112 | 4.8 | 0.0 | 0.00 | 0.00 | 0.00 | 58 | 1017.4 |
| 20260504030000 | 13 | 112 | 6.4 | 0.0 | 0.00 | 0.00 | 0.00 | 58 | 1017.5 |
| 20260504025400 | 13 | 112 | 4.8 | 0.0 | 0.00 | 0.00 | 0.00 | 61 | 1017.5 |
| 20260504024632 | 13 | 112 | 0.0 | 0.0 | 0.00 | 0.00 | 0.00 | 63 | 1017.6 |
| 20260504024541 | 13 | 112 | 0.0 | 0.0 | 0.00 | 0.00 | 0.00 | 63 | 1017.5 |
| 20260504023940 | 13 | 135 | 0.0 | 0.0 | 0.00 | 0.00 | 0.00 | 64 | 1017.5 |
| 20260504023838 | -17 | 158 | 0.0 | 0.0 | 0.00 | 0.00 | 0.00 | 64 | |
| 20260504023237 | 13 | 135 | 0.0 | 0.0 | 0.00 | 0.00 | 0.00 | 65 | 1017.5 |
| 20260504023133 | 13 | 112 | 0.0 | 0.0 | 0.00 | 0.00 | 0.00 | 66 | 1017.4 |
| 20260504022534 | 13 | 112 | 0.0 | 0.0 | 0.00 | 0.00 | 0.00 | 67 | 1017.4 |
| 20260504022152 | 13 | 112 | 0.0 | 0.0 | 0.00 | 0.00 | 0.00 | 67 | 1017.5 |
| 20260504022049 | 12 | 112 | 0.0 | 0.0 | 0.00 | 0.00 | 0.00 | 67 | 1017.4 |
| 20260504021334 | 12 | 90 | 0.0 | 0.0 | 0.00 | 0.00 | 0.00 | 68 | 1017.4 |
| 20260504020038 | 12 | 112 | 0.0 | 0.0 | 0.00 | 0.00 | 0.00 | 68 | 1017.4 |
| 20260504015912 | 12 | 112 | 0.0 | 0.0 | 0.00 | 0.00 | 0.00 | 68 | 1017.4 |
| 20260504014615 | 12 | 202 | 0.0 | 0.0 | 0.00 | 0.00 | 0.00 | 64 | 1017.4 |
| 20260504014445 | 12 | 202 | 0.0 | 0.0 | 0.00 | 0.00 | 0.00 | 63 | 1017.1 |
| 20260504013845 | 12 | 180 | 0.0 | 0.0 | 0.00 | 0.00 | 0.00 | 62 | 1017.1 |
| 20260504013724 | -17 | 180 | 0.0 | 0.0 | 0.00 | 0.00 | 0.00 | 62 | 1016.9 |
| 20260504013015 | 12 | 158 | 0.0 | 0.0 | 0.00 | 0.00 | 0.00 | 63 | 1016.9 |
| 20260504012415 | 12 | 180 | 0.0 | 0.0 | 0.00 | 0.00 | 0.00 | 60 | 1016.9 |
| 20260504012254 | 12 | 180 | 0.0 | 0.0 | 0.00 | 0.00 | 0.00 | 60 | 1016.8 |
| 20260504011654 | 12 | 202 | 0.0 | 0.0 | 0.00 | 0.00 | 0.00 | 59 | 1016.8 |
| 20260504011554 | 13 | 202 | 0.0 | 0.0 | 0.00 | 0.00 | 0.00 | 60 | 1016.7 |
| 20260504010954 | 13 | 112 | 0.0 | 0.0 | 0.00 | 0.00 | 0.00 | 60 | 1016.7 |
| 20260504010251 | 13 | 112 | 0.0 | 0.0 | 0.00 | 0.00 | 0.00 | 58 | 1016.6 |
| 20260504005539 | 13 | 180 | 0.0 | 0.0 | 0.00 | 0.00 | 0.00 | 56 | 1016.6 |
| 20260504005436 | 13 | 180 | 0.0 | 0.0 | 0.00 | 0.00 | 0.00 | 56 | 1016.5 |
| 20260504004836 | 13 | 270 | 0.0 | 0.0 | 0.00 | 0.00 | 0.00 | 56 | 1016.5 |
| 20260504004734 | 14 | 270 | 0.0 | 0.0 | 0.00 | 0.00 | 0.00 | 55 | 1016.5 |
| 20260504004134 | 14 | 112 | 0.0 | 0.0 | 0.00 | 0.00 | 0.00 | 55 | 1016.5 |
| 20260504004028 | 15 | 180 | 0.0 | 0.0 | 0.00 | 0.00 | 0.00 | 55 | 1016.3 |
| 20260504003038 | 15 | 270 | 0.0 | 0.0 | 0.00 | 0.00 | 0.00 | 53 | 1016.3 |
| 20260504002223 | 15 | 135 | 0.0 | 0.0 | 0.00 | 0.00 | 0.00 | 51 | 1016.2 |
| 20260504001815 | 15 | 270 | 0.0 | 0.0 | 0.00 | 0.00 | 0.00 | 50 | 1016.3 |
| 20260504001013 | 16 | 248 | 0.0 | 0.0 | 0.00 | 0.00 | 0.00 | 47 | 1016.3 |
| 20260504000644 | 16 | 270 | 0.0 | 0.0 | 0.00 | 0.00 | 0.00 | 45 | 1016.3 |
| 20260504000254 | 16 | 248 | 0.0 | 0.0 | 0.00 | 0.00 | 0.00 | 43 | 1016.3 |
| 20260503235928 | 17 | 270 | 0.0 | 0.0 | 0.00 | 0.00 | 0.00 | 40 | 1016.2 |
| 20260503235835 | 17 | 225 | 0.0 | 0.0 | 0.00 | 0.00 | 0.00 | 40 | 1016.4 |
| 20260503234539 | 18 | 270 | 3.2 | 0.0 | 0.00 | 0.00 | 0.00 | 41 | 1016.3 |
| 20260503234215 | 18 | 248 | 4.8 | 0.0 | 0.00 | 0.00 | 0.00 | 39 | 1016.3 |
| 20260503233818 | 18 | 270 | 4.8 | 0.0 | 0.00 | 0.00 | 0.00 | 39 | 1016.3 |
| 20260503233438 | 18 | 338 | 4.8 | 0.0 | 0.00 | 0.00 | 0.00 | 39 | 1016.3 |
| 20260503233118 | 19 | 270 | 0.0 | 0.0 | 0.00 | 0.00 | 0.00 | 39 | 1016.3 |
| 20260503232735 | 18 | 292 | 4.8 | 0.0 | 0.00 | 0.00 | 0.00 | 38 | 1016.3 |
| 20260503232410 | 19 | 225 | 6.4 | 0.0 | 0.00 | 0.00 | 0.00 | 39 | 1016.3 |
| 20260503232044 | 18 | 270 | 6.4 | 0.0 | 0.00 | 0.00 | 0.00 | 38 | 1016.4 |
| 20260503231713 | 19 | 180 | 4.8 | 0.0 | 0.00 | 0.00 | 0.00 | 38 | 1016.4 |
| 20260503231340 | 19 | 315 | 4.8 | 0.0 | 0.00 | 0.00 | 0.00 | 37 | 1016.4 |
| 20260503231019 | 19 | 22 | 8.0 | 0.0 | 0.00 | 0.00 | 0.00 | 38 | 1016.4 |
| 20260503230953 | -17 | 225 | 6.4 | 0.0 | 0.00 | 0.00 | 0.00 | 38 | |
| 20260503230624 | 19 | 270 | 6.4 | 0.0 | 0.00 | 0.00 | 0.00 | 37 | 1016.4 |
| 20260503230304 | 20 | 225 | 4.8 | 0.0 | 0.00 | 0.00 | 0.00 | 37 | 1016.5 |
| 20260503225622 | 20 | 270 | 3.2 | 0.0 | 0.00 | 0.00 | 0.00 | 39 | 1016.3 |
| 20260503225243 | 20 | 68 | 3.2 | 0.0 | 0.00 | 0.00 | 0.00 | 38 | 1016.4 |
| 20260503224915 | 21 | 270 | 3.2 | 0.0 | 0.00 | 0.00 | 0.00 | 37 | 1016.3 |
| 20260503224549 | 20 | 45 | 0.0 | 0.0 | 0.00 | 0.00 | 0.00 | 37 | 1016.3 |
| 20260503224224 | 20 | 202 | 6.4 | 0.0 | 0.00 | 0.00 | 0.00 | 38 | 1016.3 |
| 20260503223819 | 20 | 315 | 4.8 | 0.0 | 0.00 | 0.00 | 0.00 | 36 | 1016.5 |
| 20260503223453 | 20 | 270 | 4.8 | 0.0 | 0.00 | 0.00 | 0.00 | 36 | 1016.5 |
| 20260503223129 | 19 | 270 | 9.7 | 0.0 | 0.00 | 0.00 | 0.00 | 36 | 1016.5 |
| 20260503222806 | 20 | 248 | 4.8 | 0.0 | 0.00 | 0.00 | 0.00 | 38 | 1016.4 |
| 20260503222015 | 20 | 225 | 3.2 | 0.0 | 0.00 | 0.00 | 0.00 | 38 | 1016.5 |
| 20260503221654 | 20 | 248 | 6.4 | 0.0 | 0.00 | 0.00 | 0.00 | 37 | 1016.6 |
| 20260503221334 | 20 | 180 | 9.7 | 0.0 | 0.00 | 0.00 | 0.00 | 37 | 1016.6 |
| 20260503220623 | 20 | 270 | 11.3 | 0.0 | 0.00 | 0.00 | 0.00 | 37 | 1016.8 |
| 20260503220302 | 21 | 270 | 3.2 | 0.0 | 0.00 | 0.00 | 0.00 | 38 | 1016.6 |
| 20260503215943 | 21 | 158 | 4.8 | 0.0 | 0.00 | 0.00 | 0.00 | 39 | 1016.6 |
| 20260503215619 | 21 | 112 | 3.2 | 0.0 | 0.00 | 0.00 | 0.00 | 39 | 1016.5 |
| 20260503215258 | 20 | 180 | 4.8 | 0.0 | 0.00 | 0.00 | 0.00 | 38 | 1016.7 |
| 20260503214932 | 20 | 270 | 6.4 | 0.0 | 0.00 | 0.00 | 0.00 | 38 | 1016.7 |
| 20260503214612 | 21 | 292 | 6.4 | 0.0 | 0.00 | 0.00 | 0.00 | 38 | 1016.6 |
| 20260503214247 | 20 | 248 | 4.8 | 0.0 | 0.00 | 0.00 | 0.00 | 37 | 1016.6 |
| 20260503213927 | 20 | 225 | 8.0 | 0.0 | 0.00 | 0.00 | 0.00 | 38 | 1016.8 |
| 20260503213544 | 21 | 0 | 3.2 | 0.0 | 0.00 | 0.00 | 0.00 | 37 | 1016.7 |
| 20260503213220 | 20 | 202 | 6.4 | 0.0 | 0.00 | 0.00 | 0.00 | 38 | 1016.8 |
| 20260503213134 | 20 | 68 | 4.8 | 0.0 | 0.00 | 0.00 | 0.00 | 38 | 1017.0 |
| 20260503212534 | 20 | 270 | 4.8 | 0.0 | 0.00 | 0.00 | 0.00 | 37 | 1017.0 |
| 20260503212214 | 20 | 225 | 4.8 | 0.0 | 0.00 | 0.00 | 0.00 | 38 | 1017.1 |
| 20260503211801 | 20 | 270 | 8.0 | 0.0 | 0.00 | 0.00 | 0.00 | 37 | 1017.2 |
| 20260503211440 | 20 | 248 | 3.2 | 0.0 | 0.00 | 0.00 | 0.00 | 37 | 1017.2 |
| 20260503211351 | 20 | 315 | 8.0 | 0.0 | 0.00 | 0.00 | 0.00 | 37 | 1017.1 |
| 20260503210751 | 20 | 270 | 9.7 | 0.0 | 0.00 | 0.00 | 0.00 | 37 | 1017.1 |
| 20260503210431 | 20 | 338 | 1.6 | 0.0 | 0.00 | 0.00 | 0.00 | 36 | 1017.2 |
| 20260503205750 | 20 | 338 | 3.2 | 0.0 | 0.00 | 0.00 | 0.00 | 35 | 1017.4 |
| 20260503205322 | -17 | 248 | 11.3 | 0.0 | 0.00 | 0.00 | 0.00 | 37 | 1017.3 |
| 20260503204723 | 20 | 225 | 4.8 | 0.0 | 0.00 | 0.00 | 0.00 | 37 | 1017.3 |
| 20260503204402 | 21 | 292 | 8.0 | 0.0 | 0.00 | 0.00 | 0.00 | 38 | 1017.2 |
| 20260503204042 | 20 | 45 | 1.6 | 0.0 | 0.00 | 0.00 | 0.00 | 37 | 1017.4 |
| 20260503203346 | 20 | 68 | 4.8 | 0.0 | 0.00 | 0.00 | 0.00 | 38 | 1017.5 |
| 20260503203013 | 20 | 292 | 0.0 | 0.0 | 0.00 | 0.00 | 0.00 | 36 | 1017.6 |
| 20260503202654 | 19 | 270 | 8.0 | 0.0 | 0.00 | 0.00 | 0.00 | 38 | 1017.9 |
| 20260503202332 | 19 | 270 | 11.3 | 0.0 | 0.00 | 0.00 | 0.00 | 38 | 1017.9 |
| 20260503202005 | 19 | 202 | 9.7 | 0.0 | 0.00 | 0.00 | 0.00 | 39 | 1018.0 |
| 20260503201645 | 18 | 270 | 9.7 | 0.0 | 0.00 | 0.00 | 0.00 | 38 | 1018.2 |
| 20260503201320 | 18 | 248 | 14.5 | 0.0 | 0.00 | 0.00 | 0.00 | 38 | 1018.2 |
| 20260503200940 | 18 | 248 | 8.0 | 0.0 | 0.00 | 0.00 | 0.00 | 40 | 1018.2 |
| 20260503200619 | 19 | 270 | 6.4 | 0.0 | 0.00 | 0.00 | 0.00 | 39 | 1018.2 |
| 20260503200248 | 20 | 315 | 6.4 | 0.0 | 0.00 | 0.00 | 0.00 | 40 | 1018.2 |
| 20260503195923 | 20 | 270 | 4.8 | 0.0 | 0.00 | 0.00 | 0.00 | 40 | 1018.2 |
| 20260503195204 | 19 | 202 | 6.4 | 0.0 | 0.00 | 0.00 | 0.00 | 39 | 1018.5 |
| 20260503194513 | 18 | 202 | 6.4 | 0.0 | 0.00 | 0.00 | 0.00 | 42 | 1018.8 |
| 20260503193947 | 18 | 248 | 8.0 | 0.0 | 0.00 | 0.00 | 0.00 | 42 | 1018.9 |
| 20260503193621 | 18 | 248 | 11.3 | 0.0 | 0.00 | 0.00 | 0.00 | 41 | 1018.9 |
| 20260503193250 | 19 | 315 | 6.4 | 0.0 | 0.00 | 0.00 | 0.00 | 40 | 1018.9 |
| 20260503192923 | 18 | 248 | 3.2 | 0.0 | 0.00 | 0.00 | 0.00 | 40 | 1019.1 |
| 20260503192148 | 19 | 315 | 6.4 | 0.0 | 0.00 | 0.00 | 0.00 | 42 | 1019.2 |
| 20260503191753 | 19 | 248 | 9.7 | 0.0 | 0.00 | 0.00 | 0.00 | 43 | 1019.2 |
| 20260503190730 | 18 | 270 | 14.5 | 0.0 | 0.00 | 0.00 | 0.00 | 41 | 1019.4 |
| 20260503190358 | 19 | 292 | 6.4 | 0.0 | 0.00 | 0.00 | 0.00 | 40 | 1019.4 |
| 20260503190033 | 20 | 45 | 3.2 | 0.0 | 0.00 | 0.00 | 0.00 | 43 | 1019.2 |
| 20260503185652 | 18 | 45 | 8.0 | 0.0 | 0.00 | 0.00 | 0.00 | 42 | 1019.5 |
| 20260503185323 | 20 | 202 | 4.8 | 0.0 | 0.00 | 0.00 | 0.00 | 43 | 1019.2 |
| 20260503184954 | 19 | 270 | 4.8 | 0.0 | 0.00 | 0.00 | 0.00 | 43 | 1019.4 |
| 20260503184621 | 18 | 270 | 6.4 | 0.0 | 0.00 | 0.00 | 0.00 | 42 | 1019.6 |
| 20260503183918 | 17 | 270 | 8.0 | 0.0 | 0.00 | 0.00 | 0.00 | 40 | 1019.9 |
| 20260503183558 | 18 | 292 | 8.0 | 0.0 | 0.00 | 0.00 | 0.00 | 39 | 1019.8 |
| 20260503183238 | 18 | 248 | 8.0 | 0.0 | 0.00 | 0.00 | 0.00 | 40 | 1019.7 |
| 20260503182544 | 19 | 225 | 3.2 | 0.0 | 0.00 | 0.00 | 0.00 | 40 | 1019.7 |
| 20260503182205 | 18 | 22 | 4.8 | 0.0 | 0.00 | 0.00 | 0.00 | 39 | 1019.8 |
| 20260503181831 | 17 | 248 | 9.7 | 0.0 | 0.00 | 0.00 | 0.00 | 39 | 1020.0 |
| 20260503181448 | 19 | 45 | 6.4 | 0.0 | 0.00 | 0.00 | 0.00 | 40 | 1019.7 |
| 20260503181122 | 19 | 338 | 4.8 | 0.0 | 0.00 | 0.00 | 0.00 | 39 | 1019.7 |
| 20260503180802 | 19 | 45 | 4.8 | 0.0 | 0.00 | 0.00 | 0.00 | 39 | 1019.8 |
| 20260503180442 | 17 | 270 | 6.4 | 0.0 | 0.00 | 0.00 | 0.00 | 38 | 1020.0 |
| 20260503180121 | 18 | 270 | 9.7 | 0.0 | 0.00 | 0.00 | 0.00 | 39 | 1019.9 |
| 20260503175756 | 17 | 270 | 8.0 | 0.0 | 0.00 | 0.00 | 0.00 | 40 | 1020.1 |
| 20260503175347 | 18 | 248 | 8.0 | 0.0 | 0.00 | 0.00 | 0.00 | 39 | 1020.1 |
| 20260503175305 | 18 | 248 | 6.4 | 0.0 | 0.00 | 0.00 | 0.00 | 39 | 1020.2 |
| 20260503174705 | 18 | 270 | 4.8 | 0.0 | 0.00 | 0.00 | 0.00 | 39 | 1020.2 |
| 20260503174344 | 18 | 135 | 4.8 | 0.0 | 0.00 | 0.00 | 0.00 | 39 | 1020.1 |
| 20260503174009 | 18 | 22 | 4.8 | 0.0 | 0.00 | 0.00 | 0.00 | 39 | 1020.4 |
| 20260503173642 | 17 | 225 | 9.7 | 0.0 | 0.00 | 0.00 | 0.00 | 38 | 1020.5 |
| 20260503173313 | 18 | 202 | 3.2 | 0.0 | 0.00 | 0.00 | 0.00 | 39 | 1020.4 |
| 20260503172953 | 18 | 338 | 9.7 | 0.0 | 0.00 | 0.00 | 0.00 | 39 | 1020.4 |
| 20260503172622 | 17 | 225 | 4.8 | 0.0 | 0.00 | 0.00 | 0.00 | 39 | 1020.6 |
| 20260503172301 | 17 | 270 | 6.4 | 0.0 | 0.00 | 0.00 | 0.00 | 40 | 1020.6 |
| 20260503171937 | 17 | 248 | 9.7 | 0.0 | 0.00 | 0.00 | 0.00 | 40 | 1020.7 |
| 20260503171607 | 17 | 202 | 8.0 | 0.0 | 0.00 | 0.00 | 0.00 | 41 | 1020.8 |
| 20260503170921 | 17 | 0 | 8.0 | 0.0 | 0.00 | 0.00 | 0.00 | 42 | 1020.8 |
| 20260503170602 | 17 | 270 | 11.3 | 0.0 | 0.00 | 0.00 | 0.00 | 40 | 1020.8 |
| 20260503170240 | 17 | 225 | 3.2 | 0.0 | 0.00 | 0.00 | 0.00 | 41 | 1020.8 |
| 20260503150843 | 16 | 225 | 4.8 | 0.0 | 0.00 | 0.00 | 0.00 | 52 | 1021.7 |
| 20260503140149 | 14 | 338 | 3.2 | 0.0 | 0.00 | 0.00 | 0.00 | 64 | 1021.6 |
| 20260503131316 | 10 | 180 | 0.0 | 0.0 | 0.00 | 0.00 | 0.00 | 84 | 1022.0 |
| 20260503130602 | 9 | 68 | 0.0 | 0.0 | 0.00 | 0.00 | 0.00 | 85 | 1022.0 |
| 20260503130230 | -17 | 112 | 3.2 | 0.0 | 0.00 | 0.00 | 0.00 | 86 |